Location: Poughquag
(41.6090°N, 73.6820°W)
Time: 09:30:44
(UTC-05:00)

DIWATA 2B (PO-101) - Pass Details

Date: 15 November 2025
Orbit: 563 x 574 km, 98.1° (Epoch: 07 December)

Event Time Altitude Azimuth Distance (km) Brightness Sun altitude
Rises 05:14:18 0° 169° (S) 2,762 ? -16.8°
Reaches altitude 10° 05:16:26 10° 171° (S) 1,867 ? -16.4°
Maximum altitude 05:20:28 76° 256° (WSW) 592 ? -15.7°
Drops below altitude 10° 05:24:32 10° 344° (NNW) 1,875 ? -14.9°
Enters shadow 05:26:10 - 345° (NNW) 2,559 ? -14.6°
